Powrót do katalogu

DELTA 1 DEB

AktywnyLEO
NORAD 10835·DEBRIS·🇺🇸 United States

Wystrzelony Jul 29, 1976 z Vandenberg Space Force Base

Loading…

Następne Przeloty (najbliższe 24 godziny)

TLE

ŚwieżeSource: Space-Track

Epoka: Sep 14, 2026, 15:48 UTC

1 10835U 76077CF  26257.65850874  .00008428  00000-0  77263-2 0  9998
2 10835 102.0317  34.7768 0038437 330.9505  43.0503 13.82940930377357

Śledź DELTA 1 DEB w czasie rzeczywistym z AllMySat

Download on the App Store